Regional Weather Roundup
Issued by NWS Burlington, VT

Current Version | Previous Version | Text Only | Print | Product List | Glossary On
Versions: 1 2 3 4 5 6 7 8 9 10 11 12 13 14 15 16 17 18 19 20 21 22 23 24 25 26 27 28 29 30 31 32 33 34 35 36 37 38 39 40 41 42 43 44 45 46 47 48 49 50
000
ASUS41 KBTV 290530
RWRBTV
VERMONT REGIONAL WEATHER ROUNDUP
NATIONAL WEATHER SERVICE BURLINGTON VT
100 AM EDT MON MAY 29 2017

NOTE: "FAIR" INDICATES FEW OR NO CLOUDS BELOW 12,000 FEET WITH NO
SIGNIFICANT WEATHER AND/OR OBSTRUCTIONS TO VISIBILITY.

* THESE REPORTS ARE NOT UNDER NWS QUALITY CONTROL AND/OR DO NOT
  REPORT WEATHER SUCH AS PRECIPITATION AND FOG.

VTZ001>019-290600-
_____VERMONT_____


CITY           SKY/WX    TMP DP  RH WIND       PRES   REMARKS
BURLINGTON     PTCLDY    65  53  65 S7        29.87F
MONTPELIER     MOCLDY    59  56  89 SE8       29.96F
MORRISVILLE    PTCLDY    55  52  89 S3        29.93R
ST. JOHNSBURY*   N/A     56  54  93 MISG      29.93R
LYNDONVILLE*   MOCLDY    58  53  84 SE5       29.96S
MIDDLEBURY*    CLOUDY    64  54  71 SE6       29.89F
RUTLAND*       CLOUDY    62  55  77 S7        29.92S
SPRINGFIELD    CLOUDY    60  53  77 S7        29.95R
HIGHGATE*      FAIR      62  54  73 SE6       29.85F
NEWPORT*       FAIR      56  53  90 SE7       29.93S
BENNINGTON     CLOUDY    56  51  84 E5        29.92S
SUTTON*          N/A     55 N/A N/A MISG        N/A
ISLAND POND*     N/A     57 N/A N/A E1          N/A
GALLUP MILLS*    N/A     48 N/A N/A MISG        N/A
UNION VILLAGE*   N/A     59 N/A N/A MISG        N/A
MT. MANSFIELD*   N/A     52 N/A N/A SE14        N/A

_____LAKE CHAMPLAIN_____


CITY           SKY/WX    TMP DP  RH WIND       PRES   REMARKS
BURTON ISLAND*   N/A     61  55  82 S7          N/A
COLCHESTER RF*   N/A     63  54  72 S18         N/A
DIAMOND ISL*     N/A     63  55  77 S10         N/A

$$

NYZ007-026>031-035-052-083-087-290600-
_____NORTHERN NEW YORK_____


CITY           SKY/WX    TMP DP  RH WIND       PRES   REMARKS
PLATTSBURGH    PTCLDY    59  53  80 S9        29.85S
SARANAC LAKE   PTCLDY    49  49 100 CALM      29.85F
MASSENA        CLOUDY    65  56  72 E5        29.80F
OGDENSBURG*    FAIR      67  56  68 SE3       29.76F
POTSDAM*       CLOUDY    66  57  72 S8        29.79F
STARK FALLS*     N/A     63 N/A N/A SE13        N/A
WATERTOWN      MOCLDY    67  57  70 SE6       29.75F
FT DRUM        CLOUDY    66  56  71 SE13      29.76F
ALBANY         MOCLDY    60  48  64 SE9       29.90S

$$
NHZ002-005-011-290600-
_____NEW HAMPSHIRE_____


CITY           SKY/WX    TMP DP  RH WIND       PRES   REMARKS
LEBANON        CLOUDY    63  57  81 CALM      29.94R
KEENE          CLEAR     55  52  89 CALM      29.96S
MT WASHINGTON  FOG       39  39 100 S17         N/A  VSB 0   WCI  30
PLYMOUTH       CLOUDY    57  51  81 CALM      29.98S
WHITEFIELD     CLEAR     50  46  86 CALM      29.95R

$$

_____REGIONAL QUEBEC LOCATIONS_____


CITY           SKY/WX    TMP DP  RH WIND       PRES   REMARKS
MONTREAL       PTCLDY    64  55  72 SE9       29.82F
QUEBEC CITY    CLOUDY    52  41  66 E8        29.96S
SHERBROOKE     CLEAR     57  50  77 E3        29.92R

_____REGIONAL ONTARIO LOCATIONS_____


CITY           SKY/WX    TMP DP  RH WIND       PRES   REMARKS
OTTAWA         MOCLDY    64  55  72 SE6       29.76F

______KEY______
VSB  - VISIBILITY IN MILES
WCI  - WIND CHILL INDEX
HX   - HEAT INDEX
$$
NNNN




USA.gov is the U.S. government's official web portal to all federal, state and local government web resources and services.